Regional Weather Roundup
Issued by NWS State College, PA

Current Version | Previous Version | Text Only | Print | Product List | Glossary On
Versions: 1 2 3 4 5 6 7 8 9 10 11 12 13 14 15 16 17 18 19 20 21 22 23 24 25 26 27 28 29 30 31 32 33 34 35 36 37 38 39 40 41 42 43 44 45 46 47 48 49 50
000
ASUS41 KCTP 170510
RWRCTP

REGIONAL WEATHER ROUNDUP
NATIONAL WEATHER SERVICE STATE COLLEGE PA
1200 AM EST SUN FEB 17 2019

Note: "fair" indicates few or no clouds below 12,000 feet with no
significant weather and/or obstructions to visibility.

* = STATION THAT DOES NOT REPORT PRECIPITATION /E.G. RAIN...SNOW...ETC/
    THUNDER OR FOG.

PAZ002>004-007>009-013>016-020>023-029>032-170600-
WESTERN PENNSYLVANIA

CITY           SKY/WX    TMP DP  RH WIND       PRES   REMARKS
ERIE           CLOUDY    25  17  72 NE9       30.11S
MEADVILLE      CLOUDY    23  14  68 NE5       30.05R
FRANKLIN*      CLOUDY    22  15  75 NE6       30.05R WCI  14
NEW CASTLE     CLOUDY    25  18  74 NE5       30.09R
BEAVER COUNTY  NOT AVBL
BUTLER*        CLOUDY    25  17  72 NE3       30.06R
PITTSBURGH INT CLOUDY    26  17  68 N6        30.06R
PITTSBURGH     CLOUDY    26  17  68 CALM      30.04R
INDIANA*       PTCLDY    25  18  74 CALM      30.06S
LATROBE        FAIR      25  18  74 CALM      30.05R
WASHINGTON CO* CLOUDY    26  19  74 NE7       30.08R
$$

PAZ004>006-010>012-017>019-024>028-033>037-041-042-045-046-049>053-170600-
CENTRAL PENNSYLVANIA

CITY           SKY/WX    TMP DP  RH WIND       PRES   REMARKS
BRADFORD       CLOUDY    19  12  74 E5        29.99F WCI  12
DUBOIS         CLOUDY    21  13  71 NE3       30.00F
CLEARFIELD     FAIR      22  14  71 N6        30.02F WCI  14
JOHNSTOWN      FAIR      21  14  74 CALM      29.96F
ALTOONA        FAIR      22  14  71 N3        30.02F
STATE COLLEGE  FAIR      25  15  67 NE3       30.04F
WILLIAMSPORT   FAIR      26  15  63 N3        30.09R
SELINSGROVE    FAIR      27  17  66 N8        30.09R
FT INDIANTOWN  FAIR      29  15  56 N5        30.06S
CAPITAL CITY   FAIR      33  16  49 N3        30.07S
HARRISBURG     FAIR      30  17  58 N5        30.06S
YORK           FAIR      29  19  66 N3        30.05S
$$

PAZ038>040-043-044-047-048-054-055-060>062-067>071-170600-
EASTERN PENNSYLVANIA

CITY           SKY/WX    TMP DP  RH WIND       PRES   REMARKS
SCRANTON       CLOUDY    24  15  68 N3        30.06R
MOUNT POCONO   FAIR      18  13  80 N8        29.97R WCI   8
ALLENTOWN      FAIR      28  15  58 NW7       30.07R
QUAKERTOWN*    CLEAR     27  16  63 CALM      30.06S
READING        FAIR      28  20  71 N6        30.06S
LANCASTER      FAIR      31  19  61 N7        30.06R
COATESVILLE    FAIR      30  18  59 N9G16     30.05R
POTTSTOWN      FAIR      28  16  60 N7        30.08S
BLUE BELL      FAIR      30  19  64 CALM      30.07F
DOYLESTOWN     FAIR      27  15  61 N6        30.04R
WILLOW GROVE   NOT AVBL
NORTH PHILA    FAIR      32  16  51 N12       30.06S
PHILADELPHIA   FAIR      32  16  51 N12G18    30.06S
$$



USA.gov is the U.S. government's official web portal to all federal, state and local government web resources and services.